COSMOS 2066

Satellite information

Favourite Embed

Satellite Type and Status

PAYLOADIN ORBIT

Key statistics

Satellite COSMOS 2066 at a glance.

Uptime

12878

Days in orbit

Revolutions

≈ 12.6

Per day

Orbit

LEO

Low Earth Orbit

Inclination

74.0

Latest

Satellite identification and parameters

Extended collection of information and parameters for COSMOS 2066.

Object identification

Identified? True

Debris? False

Object name: COSMOS 2066

International designator: 1990-029C

Object number (NORAD): 20551

Object ID (CCSDS): 20551

Country: COMMONWEALTH OF INDEPENDENT STATES (CIS)

Current information (Y/N): Y

RCS size: MEDIUM

Orbital parameters

Period: 114.312 minutes

Inclination: 73.9818 deg

SMA: 7802.297 km

Apoapsis: 1463.025 km

Periapsis: 1385.299 km

RAAN: 57.4185 deg

Eccentricy: 0.004981

Argument of periapsis: 248.7633 deg

Mean anomaly: 122.1422 deg

Mean motion: 12.59705541 rev/day

Mean motion (dot): 0.00000002 rev/day2

B* drag term: 0.00010571 1/REarth

Two-line elements (TLE)

Creation date: July 8, 2025, 10:36 p.m.

Reference frame: TEME

Reference center: EARTH

Epoch: July 8, 2025, 9:12 p.m. UTC

TLE line 0: 0 COSMOS 2066

TLE line 1: 1 20551U 90029C 25189.88372802 .00000002 00000-0 10571-3 0 9995

TLE line 2: 2 20551 73.9818 57.4185 0049810 248.7633 122.1422 12.59705541621547

Live tracking on map

Real-time ground track for satellite COSMOS 2066.

In-orbit conjunctions

A list of the most updated potential collisions computed for object COSMOS 2066.

Target Orbit TCA Probability of collision Miss distance Type
COSMOS 2143 DEB LEO 2025-02-11 22:45:24 0.0002756632 658.0 (m) DEBRIS
DELTA 1 DEB SSO 2025-01-03 17:18:54 0.0002574548 434.0 (m) DEBRIS
THORAD DELTA 1 DEB SSO 2024-10-11 20:25:48 0.002032234 51.0 (m) DEBRIS
DELTA 1 DEB SSO 2024-06-10 21:19:30 0.0005339126 121.0 (m) DEBRIS

Associated space launch

Military communications satellites

COSMOS 2066 was lifted into orbit during the mission ‘Kosmos-3M | Strela-1M 345-352’, on board a Kosmos-3M space rocket.

The launch took place on April 6, 1990, 3:13 a.m. from 133/3 (133L).

For more information about the launch, click the button.

Launch to space Kosmos-3M | Strela-1M 345-352
Kosmos-3M | Strela-1M 345-352

Agency: N/A

Status: Launch Successful

Launch date: April 6, 1990, 3:13 a.m. UTC

Rocket: Kosmos-3M

Launch pad: 133/3 (133L)

Location: Plesetsk Cosmodrome, Russian Federation

...

Latest news about this satellite

There are no fresh news available about this satellite. Check back as we update our databases every day.


Newsletter sign-up

Weekly statistics, charts and insights to help you stay on top of the space industry.